QPF
0.04 0.04 0.04 0.05 0.05 0.04 0.05 0.05 0.06 0.06 0.07 0.08 0.08 0.08 0.07 0.05 0.03 0.03 0.03 0.02 0.02 0.02 0.02 0.02 0.02 0.03 0.04 0.04 0.05 0.04 0.02 0.02 0.04 0.05 0.05 0.05 0.03 0.03 0.05 0.05 0.06 0.07 0.07
0.04 0.04 0.03 0.04 0.04 0.04 0.04 0.04 0.04 0.05 0.05 0.05 0.05 0.04 0.04 0.05 0.04 0.04 0.04 0.03 0.02 0.02 0.03 0.03 0.03 0.03 0.03 0.02 0.03 0.04 0.02 0.02 0.02 0.02 0.02 0.04 0.03 0.03 0.03 0.03 0.03 0.04 0.05
0.04 0.04 0.04 0.03 0.03 0.03 0.04 0.04 0.03 0.03 0.04 0.04 0.04 0.03 0.04 0.03 0.03 0.03 0.04 0.04 0.03 0.02 0.03 0.03 0.03 0.03 0.02 0.02 0.02 0.03 0.02 0.02 0.02 0.01 0.02 0.02 0.03 0.04 0.07 0.04 0.02 0.02 0.04
0.04 0.05 0.05 0.04 0.03 0.04 0.03 0.03 0.04 0.04 0.04 0.04 0.03 0.03 0.03 0.02 0.03 0.03 0.04 0.05 0.05 0.04 0.03 0.03 0.03 0.03 0.03 0.03 0.03 0.03 0.02 0.02 0.02 0.02 0.01 0.02 0.03 0.03 0.02 0.02 0.02 0.01 0.02
0.05 0.06 0.06 0.04 0.04 0.03 0.03 0.03 0.04 0.04 0.04 0.04 0.04 0.04 0.03 0.02 0.03 0.04 0.04 0.04 0.03 0.05 0.06 0.06 0.05 0.05 0.05 0.06 0.05 0.04 0.03 0.03 0.02 0.02 0.02 0.02 0.01 0.01 0.02 0.02 0.02 0.02 0.02
0.08 0.08 0.09 0.06 0.04 0.03 0.03 0.03 0.02 0.02 0.02 0.02 0.02 0.02 0.02 0.02 0.02 0.03 0.03 0.03 0.04 0.04 0.06 0.08 0.09 0.06 0.06 0.06 0.06 0.06 0.06 0.05 0.03 0.03 0.03 0.03 0.02 0.02 0.03 0.03 0.03 0.03 0.03
0.09 0.09 0.08 0.05 0.03 0.02 0.03 0.02 0.02 0.03 0.02 0.02 0.02 0.02 0.01 0.02 0.02 0.02 0.02 0.03 0.04 0.04 0.06 0.09 0.12 0.11 0.09 0.07 0.07 0.07 0.06 0.07 0.07 0.06 0.06 0.06 0.06 0.05 0.05 0.06 0.06 0.06 0.06
0.14 0.11 0.07 0.04 0.03 0.03 0.03 0.03 0.03 0.03 0.02 0.02 0.03 0.03 0.02 0.02 0.02 0.02 0.02 0.02 0.03 0.03 0.04 0.06 0.09 0.12 0.11 0.08 0.07 0.05 0.05 0.06 0.07 0.06 0.04 0.05 0.05 0.06 0.07 0.08 0.07 0.06 0.05
0.12 0.09 0.07 0.05 0.03 0.02 0.01 0.02 0.02 0.03 0.03 0.03 0.03 0.03 0.03 0.03 0.03 0.03 0.03 0.03 0.04 0.04 0.04 0.05 0.04 0.05 0.08 0.08 0.06 0.06 0.05 0.06 0.08 0.08 0.06 0.05 0.05 0.05 0.06 0.06 0.06 0.05 0.04
0.02 0.02 0.02 0.02 0.01 0.01 0.01 0.01 0.01 0.01 0.02 0.02 0.02 0.03 0.03 0.03 0.03 0.02 0.02 0.02 0.03 0.04 0.04 0.03 0.03 0.03 0.05 0.06 0.04 0.04 0.04 0.05 0.07 0.07 0.07 0.06 0.05 0.05 0.06 0.06 0.06 0.06 0.05
0.01 0.01 0.01 0.01 0.02 0.02 0.02 0.02 0.02 0.02 0.02 0.02 0.02 0.02 0.02 0.02 0.03 0.03 0.02 0.02 0.03 0.03 0.03 0.02 0.03 0.03 0.03 0.05 0.04 0.03 0.03 0.04 0.05 0.06 0.06 0.07 0.07 0.05 0.05 0.05 0.05 0.04 0.04
0.01 0.01 0.01 0.01 0.01 0.01 0.01 0.01 0.01 0.01 0.02 0.02 0.02 0.02 0.02 0.02 0.04 0.04 0.04 0.04 0.04 0.02 0.02 0.02 0.02 0.02 0.03 0.04 0.05 0.03 0.04 0.04 0.03 0.04 0.05 0.05 0.06 0.06 0.05 0.04 0.03 0.03 0.03
0.01 0.01 0.01 0.01 0.01 0.01 0.01 0.02 0.02 0.02 0.02 0.03 0.03 0.02 0.02 0.02 0.03 0.04 0.03 0.03 0.03 0.03 0.02 0.02 0.02 0.02 0.02 0.03 0.05 0.05 0.04 0.03 0.02 0.02 0.03 0.03 0.03 0.05 0.06 0.05 0.04 0.03 0.03
0.01 0.01 0.02 0.02 0.02 0.02 0.02 0.03 0.03 0.02 0.02 0.02 0.02 0.02 0.02 0.02 0.02 0.02 0.02 0.01 0.02 0.02 0.02 0.03 0.03 0.03 0.03 0.04 0.05 0.05 0.05 0.03 0.02 0.02 0.02 0.03 0.04 0.03 0.03 0.03 0.02 0.02 0.02
0.01 0.01 0.01 0.02 0.02 0.03 0.03 0.03 0.03 0.02 0.03 0.03 0.03 0.03 0.02 0.02 0.02 0.02 0.01 0.01 0.02 0.03 0.03 0.02 0.03 0.03 0.04 0.04 0.05 0.06 0.05 0.04 0.03 0.02 0.02 0.02 0.03 0.02 0.01 0.02 0.02 0.02 0.02
0.04 0.03 0.03 0.03 0.03 0.02 0.03 0.04 0.04 0.04 0.05 0.04 0.03 0.02 0.01 0.01 0.02 0.01 0.02 0.02 0.02 0.03 0.02 0.01 0.02 0.03 0.05 0.04 0.04 0.04 0.04 0.04 0.03 0.03 0.03 0.03 0.01 0.01 0.01 0.01 0.01 0.01 0.02
0.07 0.05 0.04 0.05 0.05 0.04 0.03 0.04 0.04 0.04 0.04 0.03 0.02 0.01 0.01 0.01 0.01 0.01 0.01 0.02 0.02 0.02 0.01 0.01 0.01 0.02 0.03 0.04 0.04 0.05 0.05 0.05 0.05 0.05 0.05 0.04 0.04 0.03 0.02 0.01 0.01 0.01 0.01
0.08 0.09 0.06 0.04 0.04 0.03 0.03 0.04 0.04 0.04 0.03 0.02 0.01 0.01 0.01 0.01 0.01 0.01 0.02 0.02 0.01 0.01 0.01 0.01 0.01 0.02 0.03 0.03 0.04 0.05 0.05 0.05 0.05 0.05 0.04 0.04 0.04 0.04 0.04 0.03 0.02 0.01 0.01
0.04 0.05 0.05 0.04 0.03 0.03 0.03 0.04 0.03 0.03 0.02 0.01 0.01 0.01 0.01 0.01 0.01 0.01 0.01 0.01 0.01 0.00 0.01 0.01 0.01 0.02 0.02 0.03 0.03 0.03 0.04 0.04 0.04 0.03 0.03 0.03 0.03 0.03 0.03 0.03 0.02 0.02 0.02
0.03 0.03 0.03 0.03 0.03 0.03 0.03 0.03 0.03 0.02 0.02 0.01 0.01 0.01 0.01 0.01 0.01 0.01 0.01 0.01 0.01 0.01 0.01 0.01 0.01 0.02 0.02 0.03 0.03 0.03 0.03 0.03 0.03 0.04 0.03 0.03 0.03 0.03 0.03 0.03 0.02 0.02 0.02
0.03 0.03 0.03 0.04 0.03 0.03 0.03 0.03 0.02 0.02 0.02 0.01 0.01 0.01 0.01 0.02 0.02 0.02 0.03 0.02 0.01 0.02 0.01 0.01 0.01 0.02 0.02 0.03 0.04 0.04 0.03 0.03 0.03 0.04 0.04 0.03 0.03 0.03 0.03 0.02 0.02 0.02 0.02
0.02 0.03 0.03 0.03 0.03 0.03 0.02 0.02 0.02 0.02 0.02 0.01 0.01 0.01 0.01 0.01 0.02 0.01 0.03 0.02 0.01 0.01 0.01 0.01 0.02 0.02 0.02 0.03 0.04 0.04 0.03 0.03 0.02 0.02 0.02 0.03 0.03 0.03 0.03 0.02 0.02 0.02 0.01
0.02 0.02 0.02 0.02 0.03 0.03 0.02 0.02 0.02 0.02 0.02 0.01 0.01 0.01 0.00 0.01 0.01 0.01 0.02 0.02 0.01 0.01 0.01 0.02 0.02 0.02 0.02 0.03 0.03 0.04 0.03 0.02 0.02 0.02 0.02 0.02 0.02 0.02 0.02 0.02 0.02 0.02 0.02
0.01 0.02 0.02 0.01 0.02 0.02 0.02 0.01 0.02 0.02 0.02 0.01 0.01 0.01 0.01 0.01 0.02 0.01 0.01 0.02 0.01 0.01 0.01 0.02 0.02 0.02 0.02 0.03 0.03 0.04 0.04 0.03 0.03 0.02 0.02 0.02 0.02 0.02 0.02 0.02 0.02 0.02 0.02
0.02 0.03 0.04 0.02 0.02 0.01 0.01 0.01 0.01 0.01 0.01 0.01 0.01 0.02 0.02 0.02 0.02 0.02 0.02 0.02 0.02 0.01 0.01 0.01 0.02 0.02 0.03 0.03 0.05 0.05 0.05 0.05 0.03 0.03 0.02 0.02 0.02 0.02 0.01 0.01 0.01 0.01 0.02
0.02 0.03 0.04 0.03 0.02 0.02 0.01 0.01 0.01 0.01 0.02 0.02 0.02 0.02 0.02 0.02 0.02 0.03 0.03 0.03 0.02 0.02 0.02 0.02 0.03 0.03 0.04 0.05 0.06 0.07 0.06 0.05 0.05 0.04 0.03 0.02 0.02 0.02 0.01 0.01 0.01 0.01 0.01
MSLP
1000.93 1001.57 1002.32 1003.12 1003.88 1004.59 1005.20 1005.72 1006.16 1006.54 1006.89 1007.21 1007.50 1007.76 1007.98 1008.16 1008.27 1008.34 1008.36 1008.34 1008.31 1008.28 1008.25 1008.24 1008.25 1008.29 1008.35 1008.43 1008.54 1008.68 1008.85 1009.04 1009.26 1009.49 1009.70 1009.89 1010.04 1010.14 1010.18 1010.18 1010.15 1010.12 1010.11
1000.48 1001.20 1002.04 1002.94 1003.82 1004.64 1005.37 1006.01 1006.56 1007.03 1007.45 1007.81 1008.12 1008.38 1008.58 1008.71 1008.77 1008.75 1008.68 1008.57 1008.42 1008.27 1008.12 1007.99 1007.89 1007.83 1007.82 1007.86 1007.95 1008.10 1008.30 1008.55 1008.83 1009.13 1009.41 1009.66 1009.86 1009.98 1010.05 1010.06 1010.03 1010.00 1009.98
1000.26 1001.09 1002.04 1003.04 1004.02 1004.94 1005.77 1006.50 1007.14 1007.68 1008.14 1008.53 1008.85 1009.10 1009.26 1009.35 1009.34 1009.26 1009.11 1008.90 1008.65 1008.39 1008.14 1007.91 1007.72 1007.58 1007.50 1007.49 1007.55 1007.70 1007.91 1008.18 1008.50 1008.84 1009.16 1009.45 1009.68 1009.84 1009.93 1009.94 1009.92 1009.87 1009.84
1000.32 1001.26 1002.31 1003.40 1004.47 1005.46 1006.35 1007.14 1007.81 1008.39 1008.87 1009.27 1009.58 1009.80 1009.94 1009.97 1009.92 1009.78 1009.56 1009.28 1008.96 1008.64 1008.31 1008.01 1007.76 1007.56 1007.43 1007.38 1007.41 1007.53 1007.72 1007.99 1008.31 1008.65 1008.99 1009.30 1009.54 1009.72 1009.81 1009.84 1009.81 1009.75 1009.69
1000.70 1001.74 1002.87 1004.02 1005.12 1006.13 1007.04 1007.83 1008.50 1009.07 1009.54 1009.92 1010.21 1010.41 1010.51 1010.51 1010.42 1010.24 1009.99 1009.68 1009.33 1008.97 1008.62 1008.30 1008.01 1007.78 1007.62 1007.54 1007.53 1007.62 1007.78 1008.01 1008.29 1008.60 1008.92 1009.21 1009.45 1009.62 1009.72 1009.74 1009.70 1009.63 1009.55
1001.41 1002.52 1003.68 1004.83 1005.92 1006.91 1007.77 1008.52 1009.15 1009.67 1010.10 1010.45 1010.70 1010.87 1010.95 1010.93 1010.83 1010.64 1010.39 1010.08 1009.74 1009.40 1009.06 1008.75 1008.47 1008.24 1008.07 1007.96 1007.93 1007.96 1008.07 1008.23 1008.45 1008.71 1008.97 1009.22 1009.42 1009.58 1009.66 1009.68 1009.63 1009.54 1009.43
1002.42 1003.55 1004.70 1005.81 1006.83 1007.74 1008.52 1009.18 1009.73 1010.19 1010.56 1010.86 1011.08 1011.22 1011.28 1011.27 1011.17 1011.00 1010.78 1010.51 1010.21 1009.92 1009.63 1009.36 1009.12 1008.92 1008.75 1008.63 1008.56 1008.54 1008.58 1008.67 1008.80 1008.97 1009.16 1009.34 1009.50 1009.62 1009.68 1009.68 1009.62 1009.51 1009.37
1003.68 1004.79 1005.88 1006.90 1007.81 1008.60 1009.27 1009.82 1010.28 1010.66 1010.97 1011.22 1011.42 1011.54 1011.61 1011.60 1011.53 1011.40 1011.22 1011.01 1010.79 1010.56 1010.33 1010.13 1009.94 1009.77 1009.62 1009.50 1009.40 1009.33 1009.29 1009.30 1009.34 1009.41 1009.50 1009.61 1009.71 1009.78 1009.81 1009.78 1009.71 1009.59 1009.42
1005.10 1006.14 1007.13 1008.03 1008.82 1009.49 1010.04 1010.49 1010.86 1011.17 1011.43 1011.65 1011.82 1011.95 1012.03 1012.05 1012.01 1011.93 1011.81 1011.66 1011.50 1011.34 1011.19 1011.04 1010.91 1010.77 1010.64 1010.52 1010.39 1010.27 1010.17 1010.09 1010.04 1010.02 1010.02 1010.05 1010.07 1010.09 1010.09 1010.04 1009.94 1009.80 1009.61
1006.56 1007.50 1008.38 1009.17 1009.83 1010.39 1010.84 1011.21 1011.51 1011.78 1012.01 1012.21 1012.39 1012.53 1012.63 1012.68 1012.69 1012.65 1012.58 1012.49 1012.38 1012.28 1012.17 1012.08 1011.98 1011.87 1011.76 1011.63 1011.48 1011.32 1011.17 1011.02 1010.88 1010.78 1010.71 1010.65 1010.62 1010.59 1010.54 1010.46 1010.34 1010.18 1009.96
1007.97 1008.81 1009.58 1010.25 1010.82 1011.29 1011.67 1011.99 1012.27 1012.52 1012.75 1012.97 1013.16 1013.33 1013.45 1013.54 1013.58 1013.58 1013.54 1013.48 1013.41 1013.34 1013.26 1013.19 1013.11 1013.02 1012.91 1012.77 1012.61 1012.42 1012.23 1012.03 1011.84 1011.67 1011.53 1011.42 1011.33 1011.25 1011.16 1011.05 1010.90 1010.71 1010.47
1009.25 1009.99 1010.66 1011.25 1011.76 1012.18 1012.54 1012.85 1013.13 1013.39 1013.65 1013.89 1014.12 1014.32 1014.47 1014.59 1014.65 1014.66 1014.65 1014.60 1014.54 1014.47 1014.40 1014.32 1014.25 1014.15 1014.04 1013.90 1013.72 1013.52 1013.30 1013.08 1012.86 1012.65 1012.47 1012.31 1012.18 1012.05 1011.92 1011.77 1011.59 1011.36 1011.09
1010.36 1011.01 1011.62 1012.16 1012.63 1013.04 1013.41 1013.74 1014.05 1014.36 1014.65 1014.93 1015.19 1015.42 1015.60 1015.73 1015.80 1015.83 1015.80 1015.75 1015.67 1015.59 1015.50 1015.41 1015.32 1015.21 1015.09 1014.95 1014.77 1014.57 1014.35 1014.12 1013.89 1013.67 1013.46 1013.27 1013.10 1012.93 1012.75 1012.56 1012.34 1012.07 1011.76
1011.32 1011.90 1012.45 1012.97 1013.44 1013.86 1014.26 1014.63 1014.99 1015.34 1015.68 1016.00 1016.28 1016.53 1016.73 1016.86 1016.93 1016.95 1016.91 1016.84 1016.74 1016.62 1016.51 1016.40 1016.28 1016.16 1016.04 1015.89 1015.73 1015.54 1015.33 1015.11 1014.89 1014.66 1014.44 1014.23 1014.02 1013.81 1013.59 1013.35 1013.08 1012.76 1012.40
1012.16 1012.69 1013.21 1013.72 1014.20 1014.66 1015.09 1015.51 1015.91 1016.29 1016.66 1017.00 1017.30 1017.55 1017.75 1017.88 1017.94 1017.94 1017.88 1017.78 1017.66 1017.52 1017.38 1017.25 1017.12 1016.99 1016.86 1016.73 1016.58 1016.41 1016.23 1016.03 1015.82 1015.59 1015.36 1015.13 1014.89 1014.63 1014.36 1014.06 1013.73 1013.36 1012.95
1012.96 1013.45 1013.96 1014.46 1014.96 1015.44 1015.90 1016.34 1016.77 1017.17 1017.54 1017.89 1018.18 1018.43 1018.61 1018.72 1018.77 1018.75 1018.68 1018.56 1018.42 1018.27 1018.12 1017.97 1017.83 1017.71 1017.59 1017.47 1017.34 1017.19 1017.03 1016.85 1016.65 1016.43 1016.19 1015.92 1015.64 1015.33 1015.00 1014.64 1014.24 1013.82 1013.35
1013.77 1014.24 1014.74 1015.25 1015.76 1016.25 1016.72 1017.16 1017.59 1017.98 1018.34 1018.65 1018.93 1019.15 1019.30 1019.40 1019.43 1019.40 1019.32 1019.20 1019.05 1018.90 1018.75 1018.60 1018.47 1018.36 1018.25 1018.15 1018.04 1017.92 1017.77 1017.60 1017.40 1017.16 1016.90 1016.59 1016.26 1015.89 1015.49 1015.06 1014.60 1014.12 1013.60
1014.65 1015.11 1015.61 1016.11 1016.61 1017.10 1017.55 1017.98 1018.38 1018.74 1019.06 1019.34 1019.57 1019.75 1019.88 1019.95 1019.97 1019.94 1019.86 1019.75 1019.62 1019.48 1019.34 1019.21 1019.09 1018.99 1018.90 1018.81 1018.71 1018.60 1018.46 1018.28 1018.06 1017.80 1017.49 1017.14 1016.74 1016.31 1015.84 1015.34 1014.83 1014.28 1013.73
1015.60 1016.07 1016.56 1017.06 1017.54 1018.00 1018.42 1018.81 1019.16 1019.47 1019.74 1019.97 1020.16 1020.30 1020.40 1020.46 1020.47 1020.44 1020.38 1020.28 1020.17 1020.05 1019.94 1019.83 1019.73 1019.64 1019.56 1019.47 1019.38 1019.26 1019.10 1018.90 1018.64 1018.34 1017.98 1017.56 1017.10 1016.61 1016.07 1015.52 1014.94 1014.36 1013.77
1016.63 1017.10 1017.58 1018.06 1018.51 1018.93 1019.31 1019.65 1019.95 1020.20 1020.41 1020.59 1020.74 1020.85 1020.93 1020.98 1020.99 1020.97 1020.92 1020.85 1020.76 1020.67 1020.57 1020.48 1020.39 1020.31 1020.23 1020.14 1020.02 1019.87 1019.69 1019.44 1019.15 1018.79 1018.37 1017.89 1017.37 1016.81 1016.23 1015.62 1015.01 1014.39 1013.77
1017.68 1018.15 1018.62 1019.07 1019.48 1019.86 1020.19 1020.47 1020.71 1020.91 1021.08 1021.22 1021.34 1021.42 1021.49 1021.54 1021.55 1021.54 1021.51 1021.46 1021.40 1021.32 1021.24 1021.15 1021.07 1020.98 1020.88 1020.76 1020.62 1020.43 1020.20 1019.91 1019.56 1019.14 1018.67 1018.14 1017.57 1016.96 1016.33 1015.70 1015.05 1014.41 1013.77
1018.72 1019.17 1019.61 1020.03 1020.40 1020.73 1021.01 1021.24 1021.43 1021.59 1021.72 1021.83 1021.93 1022.01 1022.07 1022.12 1022.14 1022.15 1022.13 1022.10 1022.04 1021.97 1021.89 1021.80 1021.71 1021.59 1021.47 1021.31 1021.13 1020.89 1020.61 1020.27 1019.86 1019.40 1018.87 1018.30 1017.70 1017.06 1016.41 1015.75 1015.10 1014.44 1013.79
1019.70 1020.12 1020.52 1020.89 1021.21 1021.48 1021.71 1021.90 1022.05 1022.18 1022.29 1022.39 1022.48 1022.56 1022.62 1022.68 1022.71 1022.73 1022.72 1022.70 1022.64 1022.57 1022.48 1022.37 1022.25 1022.11 1021.94 1021.74 1021.50 1021.22 1020.88 1020.49 1020.04 1019.54 1018.98 1018.39 1017.76 1017.12 1016.46 1015.80 1015.14 1014.47 1013.81
1020.58 1020.96 1021.30 1021.61 1021.88 1022.10 1022.28 1022.43 1022.55 1022.66 1022.76 1022.85 1022.94 1023.02 1023.10 1023.16 1023.21 1023.23 1023.23 1023.20 1023.14 1023.06 1022.95 1022.82 1022.66 1022.48 1022.27 1022.02 1021.74 1021.40 1021.02 1020.59 1020.10 1019.57 1019.00 1018.40 1017.77 1017.12 1016.47 1015.82 1015.16 1014.49 1013.80
1021.35 1021.66 1021.95 1022.19 1022.39 1022.56 1022.70 1022.81 1022.91 1023.00 1023.09 1023.18 1023.28 1023.37 1023.45 1023.53 1023.58 1023.61 1023.61 1023.58 1023.51 1023.42 1023.29 1023.13 1022.94 1022.72 1022.47 1022.18 1021.85 1021.47 1021.05 1020.58 1020.07 1019.52 1018.94 1018.33 1017.71 1017.08 1016.44 1015.79 1015.13 1014.46 1013.75
1021.98 1022.23 1022.45 1022.62 1022.77 1022.88 1022.98 1023.06 1023.13 1023.21 1023.29 1023.38 1023.48 1023.58 1023.67 1023.74 1023.81 1023.84 1023.84 1023.81 1023.74 1023.64 1023.50 1023.33 1023.12 1022.87 1022.59 1022.26 1021.89 1021.48 1021.02 1020.52 1019.98 1019.42 1018.83 1018.22 1017.60 1016.98 1016.35 1015.71 1015.05 1014.37 1013.64
Thickness
5716 5714 5712 5711 5710 5709 5708 5707 5706 5706 5705 5704 5704 5703 5702 5702 5701 5700 5699 5697 5696 5695 5694 5693 5693 5693 5692 5692 5692 5691 5689 5688 5685 5687 5688 5689 5689 5690 5690 5690 5691 5690 5690
5711 5708 5707 5705 5704 5703 5701 5701 5700 5700 5699 5698 5697 5697 5697 5696 5695 5695 5693 5692 5691 5690 5690 5689 5689 5689 5688 5688 5687 5687 5686 5685 5683 5681 5683 5683 5684 5685 5685 5686 5686 5686 5686
5705 5702 5700 5699 5698 5697 5695 5694 5694 5693 5692 5692 5691 5690 5690 5689 5689 5688 5688 5687 5686 5685 5684 5684 5684 5683 5683 5683 5682 5682 5681 5681 5680 5678 5678 5678 5679 5680 5680 5681 5681 5681 5682
5699 5696 5693 5692 5692 5690 5689 5688 5687 5687 5686 5685 5685 5684 5684 5683 5682 5682 5681 5680 5680 5679 5679 5678 5678 5678 5677 5678 5678 5677 5677 5676 5675 5674 5673 5673 5674 5675 5675 5675 5675 5676 5677
5692 5689 5686 5685 5685 5683 5682 5681 5681 5680 5679 5678 5678 5677 5677 5677 5676 5675 5674 5674 5673 5672 5672 5672 5673 5673 5673 5672 5673 5672 5672 5671 5670 5669 5668 5668 5668 5668 5669 5670 5670 5671 5672
5685 5683 5681 5679 5678 5676 5675 5674 5673 5672 5672 5671 5671 5670 5670 5670 5669 5668 5668 5667 5666 5665 5665 5665 5666 5666 5667 5667 5667 5667 5667 5666 5665 5665 5665 5664 5664 5665 5665 5665 5664 5664 5665
5679 5676 5674 5672 5670 5669 5668 5667 5666 5665 5664 5664 5663 5663 5662 5662 5662 5661 5661 5660 5659 5659 5658 5658 5659 5660 5659 5660 5660 5661 5661 5661 5661 5661 5661 5661 5661 5661 5661 5660 5660 5660 5660
5673 5670 5668 5666 5664 5662 5660 5659 5658 5658 5657 5656 5655 5655 5654 5655 5654 5654 5653 5652 5651 5651 5650 5650 5650 5650 5651 5651 5652 5653 5654 5654 5655 5656 5657 5657 5657 5657 5657 5657 5656 5654 5655
5666 5664 5662 5660 5657 5655 5653 5652 5651 5650 5649 5648 5647 5647 5646 5646 5647 5646 5645 5644 5643 5642 5642 5642 5642 5642 5642 5642 5644 5645 5646 5647 5648 5649 5650 5651 5651 5651 5651 5650 5649 5648 5649
5661 5658 5655 5653 5650 5649 5647 5645 5644 5643 5642 5641 5640 5639 5638 5638 5638 5638 5637 5637 5635 5634 5634 5634 5634 5634 5634 5634 5636 5637 5638 5639 5641 5643 5643 5643 5643 5644 5644 5644 5644 5643 5643
5655 5651 5648 5646 5643 5641 5639 5638 5636 5635 5634 5633 5632 5632 5631 5631 5630 5630 5629 5629 5628 5627 5626 5626 5626 5626 5626 5627 5628 5629 5631 5632 5633 5634 5635 5635 5636 5636 5637 5637 5638 5638 5638
5647 5644 5641 5638 5636 5634 5631 5629 5628 5627 5626 5624 5623 5623 5623 5623 5622 5622 5621 5621 5620 5619 5619 5619 5619 5619 5619 5619 5620 5621 5622 5623 5625 5626 5627 5628 5629 5630 5631 5631 5631 5632 5633
5639 5635 5632 5630 5627 5625 5622 5620 5619 5618 5617 5616 5615 5615 5615 5615 5615 5613 5614 5613 5612 5612 5611 5611 5611 5611 5611 5612 5612 5613 5614 5616 5617 5618 5619 5621 5622 5623 5624 5624 5625 5625 5626
5630 5626 5623 5620 5618 5616 5613 5612 5610 5609 5609 5608 5607 5607 5607 5606 5606 5605 5606 5606 5606 5605 5604 5604 5603 5604 5604 5604 5604 5605 5607 5608 5609 5611 5612 5614 5615 5615 5615 5616 5617 5617 5618
5620 5618 5615 5612 5610 5607 5604 5603 5602 5602 5601 5600 5600 5599 5598 5598 5598 5597 5597 5598 5598 5597 5597 5596 5596 5596 5596 5597 5597 5598 5599 5600 5601 5602 5604 5606 5606 5607 5607 5608 5609 5610 5611
5611 5609 5606 5603 5600 5598 5596 5594 5593 5593 5593 5593 5592 5591 5591 5591 5590 5590 5590 5590 5590 5589 5589 5589 5588 5588 5589 5589 5590 5591 5592 5592 5593 5594 5595 5597 5598 5599 5599 5600 5601 5602 5603
5603 5600 5597 5595 5593 5590 5588 5586 5585 5585 5585 5585 5585 5584 5583 5583 5583 5582 5582 5582 5582 5582 5581 5582 5581 5581 5582 5582 5582 5583 5583 5585 5585 5586 5587 5588 5589 5590 5591 5592 5593 5594 5595
5595 5593 5590 5588 5585 5583 5581 5579 5578 5578 5578 5578 5577 5576 5576 5575 5575 5575 5574 5575 5575 5574 5574 5575 5575 5575 5575 5575 5575 5576 5576 5577 5577 5578 5579 5580 5581 5581 5582 5583 5585 5586 5587
5588 5586 5583 5581 5579 5577 5575 5573 5572 5571 5570 5570 5569 5569 5569 5568 5568 5567 5567 5568 5569 5569 5568 5568 5569 5569 5569 5568 5568 5568 5568 5569 5569 5570 5571 5571 5572 5572 5573 5574 5576 5576 5577
5581 5579 5576 5574 5572 5570 5568 5566 5564 5563 5563 5562 5562 5562 5561 5561 5561 5561 5560 5561 5562 5562 5562 5562 5563 5562 5562 5562 5561 5561 5561 5561 5561 5562 5562 5563 5563 5564 5564 5565 5566 5567 5569
5573 5571 5569 5566 5564 5563 5561 5559 5558 5557 5556 5556 5556 5556 5554 5555 5556 5555 5555 5555 5555 5556 5556 5556 5556 5556 5555 5555 5555 5554 5554 5554 5554 5554 5553 5554 5554 5555 5555 5555 5557 5558 5559
5565 5562 5559 5557 5556 5555 5554 5552 5551 5551 5550 5550 5550 5549 5548 5548 5549 5550 5550 5550 5550 5550 5550 5550 5550 5549 5549 5549 5548 5547 5547 5547 5546 5546 5545 5545 5546 5546 5546 5546 5547 5548 5550
5555 5552 5550 5548 5547 5546 5546 5545 5545 5544 5544 5543 5544 5543 5543 5543 5544 5544 5545 5544 5544 5544 5544 5544 5543 5543 5543 5542 5541 5540 5540 5540 5539 5538 5537 5538 5537 5537 5537 5537 5537 5538 5540
5546 5544 5542 5540 5539 5538 5538 5538 5538 5538 5538 5538 5538 5538 5538 5538 5538 5539 5539 5538 5538 5538 5537 5537 5537 5537 5537 5536 5535 5534 5533 5532 5531 5531 5530 5529 5529 5529 5529 5528 5529 5529 5530
5537 5535 5534 5532 5532 5531 5531 5531 5531 5531 5531 5532 5532 5532 5533 5533 5532 5532 5532 5531 5531 5531 5531 5530 5530 5530 5530 5529 5528 5527 5526 5524 5523 5522 5521 5520 5520 5520 5520 5520 5520 5520 5520
5528 5527 5526 5525 5524 5524 5524 5524 5525 5525 5526 5527 5527 5527 5526 5527 5527 5527 5526 5525 5524 5525 5524 5524 5524 5523 5523 5522 5521 5520 5519 5517 5515 5513 5512 5511 5511 5511 5511 5511 5511 5510 5510